SB KEPS @ AMSAT $ORB13360.N 2Line Orbital Elements 13360.AMSAT
HR AMSAT ORBITAL ELEMENTS FOR AMATEUR SATELLITES IN NASA FORMAT FROM WA5QGD FORT WORTH,TX December 26, 2013 BID: ORB13360.N
DECODE 2-LINE ELSETS WITH THE FOLLOWING KEY: 1 AAAAAU 00 0 0 BBBBB.BBBBBBBB .CCCCCCCC 00000-0 00000-0 0 DDDZ 2 AAAAA EEE.EEEE FFF.FFFF GGGGGGG HHH.HHHH III.IIII JJ.JJJJJJJJKKKKKZ KEY: A-CATALOGNUM B-EPOCHTIME C-DECAY D-ELSETNUM E-INCLINATION F-RAAN G-ECCENTRICITY H-ARGPERIGEE I-MNANOM J-MNMOTION K-ORBITNUM Z-CHECKSUM
TO ALL RADIO AMATEURS BT
AO-07 1 07530U 74089B 13359.87980816 -.00000034 00000-0 57001-4 0 8568 2 07530 101.4523 342.5618 0011612 273.8461 147.9583 12.53600933789805 FO-29 1 24278U 96046B 13360.71627889 .00000042 00000-0 78047-4 0 2730 2 24278 098.5288 033.2738 0350772 025.2644 108.2078 13.53011685857344 SO-33 1 25509U 98061B 13360.49791748 .00000288 00000-0 46749-4 0 6569 2 25509 031.4325 058.6418 0350460 041.7562 078.7936 14.29272739792426 RS-22 1 27939U 03042A 13360.56984810 .00000894 00000-0 17596-3 0 716 2 27939 097.7968 178.4385 0012531 299.6441 060.3511 14.64768525547450 VO-52 1 28650U 05017B 13360.88552178 .00001830 00000-0 22177-3 0 6161 2 28650 097.5615 009.5823 0025498 009.7033 109.3238 14.84536423467668 HO-68 1 36122U 09072B 13360.72724152 -.00000044 00000-0 00000 0 0 1816 2 36122 100.2787 052.6761 0007252 272.7808 087.2472 13.16310287193744 AO-73 1 39445U 13066AF 13360.16162213 .00002454 00000-0 34106-3 0 203 2 39445 097.7957 071.6604 0064976 084.4775 276.3665 14.77291461 3484 UO-11 1 14781U 84021B 13359.78055812 .00000716 00000-0 98668-4 0 3723 2 14781 097.8781 058.1058 0009162 034.9780 325.2032 14.81202116602291 AO-16 1 20439U 90005D 13360.06471215 .00000140 00000-0 68011-4 0 9154 2 20439 098.4924 295.8157 0009895 315.1756 106.5942 14.32256746249701 LO-19 1 20442U 90005G 13359.50445247 .00000129 00000-0 63440-4 0 8530 2 20442 098.4624 296.4525 0010749 305.4027 054.6153 14.32463244249813 AO-27 1 22825U 93061C 13360.81510904 .00000101 00000-0 56547-4 0 5583 2 22825 098.6430 303.0152 0009527 085.6114 326.9940 14.29633711 56150 IO-26 1 22826U 93061D 13360.44292384 .00000107 00000-0 58649-4 0 3154 2 22826 098.6371 302.8950 0010029 080.2055 058.1477 14.29925050 56230 GO-32 1 25397U 98043D 13360.53042875 .00000062 00000-0 45695-4 0 2384 2 25397 098.4445 320.1968 0002455 098.6185 012.9012 14.23388556803308 NO-44 1 26931U 01043C 13360.50910890 .00000128 00000-0 81608-4 0 4986 2 26931 067.0524 123.7012 0006121 264.1922 095.8481 14.30012147638914 SO-50 1 27607U 02058C 13359.64283561 .00000689 00000-0 12640-3 0 2568 2 27607 064.5573 041.1647 0032196 080.6900 059.7536 14.73292287591916 CO-55 1 27844U 03031E 13360.48039294 .00000267 00000-0 14227-3 0 8177 2 27844 098.6998 006.7534 0010442 058.9000 096.5459 14.21347838544040 CO-57 1 27848U 03031J 13360.00090859 .00000248 00000-0 13458-3 0 7581 2 27848 098.7088 005.8969 0010457 066.0541 321.1435 14.21055861543900 AO-51 1 28375U 04025K 13360.84340661 .00000153 00000-0 58338-4 0 7337 2 28375 098.2298 308.8439 0084109 152.7280 261.1208 14.41236948499089 CP3 1 31129U 07012N 13360.89404153 .00000661 00000-0 15691-3 0 6336 2 31129 097.9156 342.8679 0099466 186.7358 229.1798 14.54100472354992 CO-65 1 32785U 08021C 13360.46765395 .00001415 00000-0 17388-3 0 8253 2 32785 097.7258 052.2960 0014700 042.1661 082.8583 14.84494933306395 PRISM 1 33493U 09002B 13360.78638854 .00004991 00000-0 55668-3 0 4930 2 33493 098.2339 164.4967 0016811 287.4370 072.4976 14.87416278266538 SOHLA-1 1 33496U 09002E 13360.18032531 .00000465 00000-0 84984-4 0 2324 2 33496 098.1519 115.9418 0007640 078.2475 039.8997 14.70513410264080 TISAT-1 1 36799U 10035E 13360.79153887 .00003381 00000-0 40901-3 0 7578 2 36799 098.0260 086.6403 0014564 158.1864 201.9886 14.84301966187137 STUDSAT 1 36801U 10035G 13358.88198270 .00011926 00000-0 11934-2 0 7380 2 36801 098.0392 089.9109 0011400 142.2940 284.8189 14.91530948187106 ALMASAT-1 1 38078U 12006B 13360.51678110 .00030934 00000-0 68728-3 0 8854 2 38078 069.4762 111.2753 0655118 259.0278 093.6555 14.35797879 96739 XATCOBEO 1 38082U 12006F 13360.67336803 .00134060 64969-5 18641-2 0 7992 2 38082 069.4685 057.5962 0446446 230.0984 126.0085 14.89281157 98217 CUBEBUG-1 1 39153U 13018D 13360.78293794 .00001888 00000-0 27492-3 0 7053 2 39153 098.0592 076.4089 0017926 181.1323 178.9829 14.76959271 36109 ESTCUBE-1 1 39161U 13021C 13360.70467637 .00001478 00000-0 25806-3 0 6777 2 39161 098.1144 077.8354 0009418 215.9848 144.0661 14.69402172 34265 NOAA-10 1 16969U 86073A 13360.51121428 .00000107 00000-0 60798-4 0 6171 2 16969 098.5286 023.9894 0012732 046.5160 074.8951 14.27698244419389 NOAA-11 1 19531U 88089A 13360.20366445 .00000093 00000-0 70117-4 0 6411 2 19531 098.6972 078.5872 0012185 076.1368 284.1160 14.15046983303275 NOAA-12 1 21263U 91032A 13360.51112170 .00000087 00000-0 55056-4 0 1037 2 21263 098.6807 024.2093 0013980 025.3784 134.2969 14.25612305175954 MET-3/5 1 21655U 91056A 13359.99158174 .00000253 00000-0 62394-3 0 8643 2 21655 082.5597 118.7938 0013630 016.7034 343.4303 13.17054193 75183 MET-2/21 1 22782U 93055A 13360.89234728 .00000057 00000-0 37701-4 0 9331 2 22782 082.5511 310.0077 0022860 031.9520 348.2809 13.83720896 26291 OKEAN-4 1 23317U 94066A 13360.54318819 .00001005 00000-0 11493-3 0 4120 2 23317 082.5378 229.7064 0019705 313.3294 094.4411 14.84928496 37488 NOAA-14 1 23455U 94089A 13360.49381860 -.00000002 00000-0 21706-4 0 5822 2 23455 098.7913 081.9178 0009997 165.9524 317.0354 14.13939772979541 NOAA-15 1 25338U 98030A 13360.51046495 .00000146 00000-0 81069-4 0 123 2 25338 098.7405 349.8334 0009605 290.9521 178.2787 14.25317273812240 RESURS 1 25394U 98043A 13359.85022192 .00000036 00000-0 33296-4 0 5494 2 25394 098.3890 326.7533 0002291 073.1251 316.5195 14.24357079803647 FENGYUN1 1 25730U 99025A 13359.47841334 .00001432 00000-0 81662-3 0 422 2 25730 098.8977 316.8814 0025325 235.4884 271.7634 14.11161206753018 OKEAN-0 1 25860U 99039A 13360.48511139 .00000612 00000-0 98777-4 0 1315 2 25860 098.0190 320.6738 0000902 122.0193 022.4587 14.74873651776697 NOAA-16 1 26536U 00055A 13360.54184949 .00000074 00000-0 64343-4 0 4999 2 26536 099.0165 054.9555 0009684 315.7409 171.8032 14.12964488683739 NOAA-17 1 27453U 02032A 13360.45862291 .00000153 00000-0 83114-4 0 4049 2 27453 098.3107 004.3176 0010779 325.7732 192.9015 14.24665229598094 NOAA-18 1 28654U 05018A 13360.49873302 .00000269 00000-0 17236-3 0 8929 2 28654 099.1270 331.7417 0014749 032.5306 116.2904 14.11916258443197 NOAA-19 1 33591U 09005A 13360.48734912 .00000259 00000-0 16680-3 0 649 2 33591 098.9266 301.2293 0013144 245.3396 249.7422 14.11609404251624 HUBBLE 1 20580U 90037B 13360.51196914 .00002334 00000-0 15100-3 0 4035 2 20580 028.4709 091.4094 0002739 240.4728 236.0540 15.04415747 98681 ISS 1 25544U 98067A 13360.93889909 .00009146 00000-0 16762-3 0 3302 2 25544 051.6493 233.3055 0004516 316.6423 121.3116 15.50069092864608 CO-58 1 28895U 05043F 13359.81293098 .00000940 00000-0 19829-3 0 6559 2 28895 097.8475 205.5725 0017362 193.5903 166.4834 14.61448766434920 FALCON 1 30776U 07006E 13360.55416821 .00007828 00000-0 43701-3 0 7666 2 30776 035.4303 099.8857 0001450 179.3932 301.0624 15.12908986374541 MAST 1 31126U 07012K 13360.12701747 .00000512 00000-0 12265-3 0 9329 2 31126 097.8968 345.2736 0093174 173.3656 277.8610 14.54872887355229 CAPE1 1 31130U 07012P 13359.88383732 .00000746 00000-0 17626-3 0 9375 2 31130 097.9163 341.5128 0099895 191.0436 168.8569 14.53893195354624 COMPASS 1 32787U 08021E 13360.12206092 .00002673 00000-0 30748-3 0 8142 2 32787 097.7284 053.5428 0014958 037.4242 322.8012 14.86515477306467 AAUSAT2 1 32788U 08021F 13360.80627246 .00003291 00000-0 37207-3 0 7992 2 32788 097.7293 055.0063 0014360 034.7027 325.5123 14.87080285306613 DO-64 1 32789U 08021G 13360.18925543 .00006576 00000-0 67717-3 0 8343 2 32789 097.7465 059.4334 0013413 027.1521 039.8925 14.90536226306707 CO-66 1 32791U 08021J 13360.82421966 .00002555 00000-0 30176-3 0 7944 2 32791 097.7282 053.3116 0015528 037.5171 016.3397 14.85459896306460 RS-30 1 32953U 08025A 13360.82779304 .00000010 00000-0 00000 0 0 5019 2 32953 082.5037 308.3895 0018498 169.3241 190.8250 12.43041072253842 METEOR-M 1 35865U 09049A 13360.75433084 .00000006 00000-0 21991-4 0 1103 2 35865 098.5762 048.1841 0001798 224.9502 135.1529 14.21903148221836 RS-38 1 35869U 09049E 13360.75339603 .00000064 00000-0 47931-4 0 610 2 35869 098.5698 048.0381 0003901 233.4688 126.6127 14.22167859221868 JUGNU 1 37839U 11058B 13359.86224602 .00000420 00000-0 82659-4 0 5295 2 37839 019.9601 225.3421 0018958 235.0698 218.9663 14.12225100114022 SRMSAT 1 37841U 11058D 13360.05241162 .00000395 00000-0 72819-4 0 5288 2 37841 019.9708 240.0498 0011868 182.7814 321.2038 14.10282560113891 RAX-2 1 37853U 11061D 13360.12583263 .00005164 00000-0 37786-3 0 6805 2 37853 101.7042 302.8952 0226975 196.1249 287.6477 14.86089412116928 AUBIESAT 1 37854U 11061E 13360.84230843 .00004934 00000-0 35288-3 0 6650 2 37854 101.7086 305.2622 0225988 192.0707 237.7789 14.87054584117066 HRBE 1 37855U 11061F 13360.82291359 .00004449 00000-0 32180-3 0 6747 2 37855 101.7090 304.8260 0227423 192.9396 198.8992 14.86581895117044 RS-39 1 38051U 11062C 13360.72650463 .00030644 00000-0 74416-3 0 1010 2 38051 051.6350 356.8952 0006541 246.1919 099.8792 15.40724548107366 E-STAR 1 38079U 12006C 13360.87902956 .00089204 45694-5 14460-2 0 6872 2 38079 069.4686 072.7277 0518677 238.3289 243.7015 14.71164191 97811 GOLIAT 1 38085U 12006J 13360.72787836 .00088304 45053-5 14541-2 0 6612 2 38085 069.4748 077.1649 0532983 240.4906 114.2105 14.67837155 97684 HORYU-2 1 38340U 12025D 13360.44163728 .00002028 00000-0 33413-3 0 7117 2 38340 098.2413 310.0714 0013008 008.7267 351.4147 14.71595669 86388 RS-40 1 38736U 12041D 13360.62399892 .00000010 00000-0 00000 0 0 4609 2 38736 082.4798 035.1408 0020170 266.1924 093.6859 12.42875152 64151 PROITERES 1 38756U 12047B 13360.78922920 .00001053 00000-0 16607-3 0 4273 2 38756 098.2391 081.2457 0011815 208.1578 151.8979 14.74543171 69773 BEESAT-3 1 39134U 13015E 13359.88461023 .00008181 00000-0 62802-3 0 4571 2 39134 064.8795 325.8296 0010506 332.2216 027.8123 15.02303627 37605 BEESAT-2 1 39136U 13015G 13360.29820013 .00006596 00000-0 51221-3 0 4456 2 39136 064.8786 324.6416 0010245 331.6247 028.4312 15.02061115 37661 CAPE-1 1 39380U 13064A 13360.54184986 .00004579 00000-0 20935-3 0 498 2 39380 040.5181 037.9310 0004522 214.6996 145.3532 15.21214882 5560 TRLBLAZER 1 39382U 13064C 13360.18849218 .00030808 00000-0 12692-2 0 513 2 39382 040.5057 039.6021 0001850 178.7581 181.2937 15.23435829 5503 TECHEDST3 1 39415U 98067DD 13360.74493480 .00387053 00000-0 29757-2 0 690 2 39415 051.6447 231.9368 0008134 206.3485 264.8930 15.70265586 5672 ZACUBE-1 1 39417U 13066B 13360.63607761 .00001988 00000-0 27787-3 0 1115 2 39417 097.7957 072.1178 0064924 082.7712 278.0852 14.77262226 5217 TRITON-1 1 39427U 13066M 13360.18744354 .00001614 00000-0 28079-3 0 295 2 39427 097.7860 070.9872 0121084 080.6239 280.8528 14.64684783 5066 DELFIN3XT 1 39428U 13066N 13359.90648819 .00002705 00000-0 48247-3 0 317 2 39428 097.7871 070.5852 0132459 081.4098 280.1961 14.62161864 5009 GOMX-1 1 39430U 13066Q 13360.73548014 .00001377 00000-0 27155-3 0 790 2 39430 097.7814 071.0379 0159501 078.9609 282.9455 14.56144096 5116 $50SAT 1 39436U 13066W 13360.74321318 .00013041 00000-0 15373-2 0 332 2 39436 097.7983 072.6000 0030721 096.3968 264.0383 14.84543303 5241 PUCPSAT-1 1 39442U 13066AC 13359.78328743 .00003375 00000-0 39878-3 0 224 2 39442 097.8008 071.7045 0037129 094.2825 266.2611 14.84827221 3884 /EX